C/2015 A2 ( PanSTARRS )

Japanese version
Home page
Updated on June 11, 2016

---------------------------------------------------------------------

* Profile

Discovery Date January 12, 2015
Magnitude 21.1 mag
Discoverer Pan-STARRS 1 telescope (Haleakala)

* Orbital Elements

T 2015 Aug. 1.83532 TT                                  MPCW
q   5.3410546            (2000.0)            P               Q
                   Peri.  208.83694     +0.32978273     +0.18575198
                   Node   258.50417     +0.93984512     -0.15710812
e   1.0            Incl.  109.16960     -0.08907576     -0.96995528
From 18 observations 2015 Jan. 12-16.

* Magnitudes Graph

        m1 = 10.0 + 5 log d + 10.0 log r

---------------------------------------------------------------------

The orbital elements are published on M.P.E.C. 2015-G03.
The magnitudes graphs are made with Comet for Windows.

---------------------------------------------------------------------

Copyright(C) Seiichi Yoshida (comet@aerith.net). All rights reserved.